DW0664 Weather Reports


Display with metric or nautical units.
time (UTC)temp
F
wind
direction
speed
MPH
gust
MPH
rain 1hr
in
rain 24hr
in
rain mn
in
humidity
%
barometer
mb
20260902045832 80 54 0.0 0.0 0.00 0.00 0.00 79 1016.7
20260902045329 80 57 0.0 0.0 0.00 0.00 0.00 79 1016.7
20260902044825 80 57 0.0 0.0 0.00 0.00 0.00 79 1016.7
20260902044320 80 55 0.0 0.0 0.00 0.00 0.00 79 1016.8
20260902043819 80 60 0.0 0.0 0.00 0.00 0.00 78 1016.8
20260902043315 80 61 0.0 0.0 0.00 0.00 0.00 78 1016.7
20260902042814 81 61 0.0 0.0 0.00 0.00 0.00 78 1016.9
20260902042309 81 60 0.0 0.0 0.00 0.00 0.00 77 1016.8
20260902041804 81 61 0.0 0.0 0.00 0.00 0.00 77 1016.9
20260902041304 82 55 0.0 0.0 0.00 0.00 0.00 76 1017.1
20260902040803 82 59 0.0 0.0 0.00 0.00 0.00 76 1016.9
20260902040259 82 61 0.0 0.0 0.00 0.00 0.00 75 1017.2
20260902035757 82 64 0.0 0.0 0.00 0.00 0.00 75 1017.1
20260902035253 82 61 0.0 1.0 0.00 0.00 0.00 75 1016.9
20260902034752 82 64 1.0 1.0 0.00 0.00 0.00 74 1016.9
20260902034247 82 61 0.0 1.0 0.00 0.00 0.00 74 1017.0
20260902033745 83 61 0.0 0.0 0.00 0.00 0.00 74 1017.0
20260902033240 82 72 0.0 1.0 0.00 0.00 0.00 74 1016.9
20260902032738 82 65 0.0 1.0 0.00 0.00 0.00 74 1016.7
20260902032234 83 65 0.0 0.0 0.00 0.00 0.00 74 1016.6
20260902031734 83 56 0.0 0.0 0.00 0.00 0.00 73 1016.7
20260902031230 83 76 1.0 1.0 0.00 0.00 0.00 73 1016.4
20260902030726 83 60 0.0 1.0 0.00 0.00 0.00 73 1016.3
20260902030225 83 60 0.0 1.0 0.00 0.00 0.00 73 1016.2
20260902025725 84 65 1.0 2.0 0.00 0.00 0.00 72 1016.2
20260902025220 84 65 1.0 2.0 0.00 0.00 0.00 72 1016.4
20260902024714 84 88 1.0 2.0 0.00 0.00 0.00 71 1016.3
20260902024210 84 40 2.0 2.0 0.00 0.00 0.00 71 1016.3
20260902023706 84 64 0.0 0.0 0.00 0.00 0.00 71 1016.2
20260902023201 84 84 1.0 2.0 0.00 0.00 0.00 71 1016.1
20260902022700 84 61 0.0 1.0 0.00 0.00 0.00 70 1016.1
20260902022156 84 67 0.0 2.0 0.00 0.00 0.00 70 1016.0
20260902021651 84 64 0.0 0.0 0.00 0.00 0.00 70 1015.9
20260902021146 84 60 0.0 0.0 0.00 0.00 0.00 69 1015.6
20260902020643 84 80 0.0 2.0 0.00 0.00 0.00 69 1015.9
20260902020138 84 65 0.0 1.0 0.00 0.00 0.00 69 1015.9
20260902015634 85 44 1.0 2.0 0.00 0.00 0.00 68 1015.7
20260902015130 85 52 0.0 2.0 0.00 0.00 0.00 68 1015.6
20260902014625 85 85 1.0 1.0 0.00 0.00 0.00 68 1015.8
20260902014121 85 71 1.0 2.0 0.00 0.00 0.00 67 1015.5
20260902013620 85 67 1.0 2.0 0.00 0.00 0.00 67 1015.4
20260902013116 85 71 1.0 1.0 0.00 0.00 0.00 66 1015.6
20260902012611 86 66 0.0 1.0 0.00 0.00 0.00 66 1015.5
20260902012106 86 69 0.0 2.0 0.00 0.00 0.00 66 1015.6
20260902011602 86 81 1.0 3.0 0.00 0.00 0.00 65 1015.7
20260902011101 86 67 0.0 2.0 0.00 0.00 0.00 65 1015.4
20260902010600 86 94 1.0 6.0 0.00 0.00 0.00 64 1015.5
20260902010056 86 114 4.0 7.0 0.00 0.00 0.00 63 1015.4
20260902005553 87 86 2.0 6.0 0.00 0.00 0.00 63 1015.5
20260902005050 87 151 1.0 7.0 0.00 0.00 0.00 62 1015.5
20260902004549 87 104 3.0 4.0 0.00 0.00 0.00 62 1015.3
20260902004045 88 95 3.0 4.0 0.00 0.00 0.00 61 1015.4
20260902003540 88 66 2.0 4.0 0.00 0.00 0.00 61 1015.4
20260902003035 89 77 1.0 2.0 0.00 0.00 0.00 60 1015.2
20260902002531 89 78 1.0 2.0 0.00 0.00 0.00 58 1015.0
20260902002020 90 107 1.0 6.0 0.00 0.00 0.00 58 1015.3
20260902001515 90 55 1.0 7.0 0.00 0.00 0.00 58 1015.0
20260902001010 91 128 3.0 6.0 0.00 0.00 0.00 57 1014.9
20260902000505 91 56 2.0 3.0 0.00 0.00 0.00 56 1014.8
20260902000000 92 89 2.0 7.0 0.00 0.00 0.00 55 1014.8
20260901235454 92 39 1.0 6.0 0.00 0.00 0.00 54 1014.8
20260901234950 93 106 2.0 8.0 0.00 0.00 0.00 53 1014.6
20260901234444 95 90 3.0 4.0 0.00 0.00 0.00 50 1014.6
20260901233939 96 97 3.0 4.0 0.00 0.00 0.00 45 1014.7
20260901233434 96 65 0.0 3.0 0.00 0.00 0.00 45 1014.6
20260901232931 96 48 1.0 1.0 0.00 0.00 0.00 44 1014.6
20260901232430 96 70 0.0 2.0 0.00 0.00 0.00 44 1014.6
20260901231926 96 145 1.0 4.0 0.00 0.00 0.00 44 1014.9
20260901231422 97 86 1.0 3.0 0.00 0.00 0.00 44 1014.5
20260901230918 98 76 0.0 3.0 0.00 0.00 0.00 43 1014.6
20260901230417 96 87 0.0 3.0 0.00 0.00 0.00 43 1014.6
20260901225913 97 140 2.0 4.0 0.00 0.00 0.00 43 1014.8
20260901225412 96 73 1.0 4.0 0.00 0.00 0.00 44 1014.8
20260901224907 97 59 0.0 1.0 0.00 0.00 0.00 43 1014.9
20260901224403 97 66 1.0 1.0 0.00 0.00 0.00 43 1014.8
20260901223900 97 87 2.0 4.0 0.00 0.00 0.00 43 1014.7
20260901223354 97 78 0.0 0.0 0.00 0.00 0.00 42 1014.8
20260901222850 98 17 0.0 1.0 0.00 0.00 0.00 42 1014.9
20260901222347 98 35 0.0 0.0 0.00 0.00 0.00 41 1014.9
20260901221843 98 48 1.0 1.0 0.00 0.00 0.00 42 1014.9
20260901221338 97 57 0.0 1.0 0.00 0.00 0.00 43 1014.8
20260901220838 97 55 0.0 0.0 0.00 0.00 0.00 43 1014.9
20260901220337 96 63 0.0 1.0 0.00 0.00 0.00 44 1015.0
20260901215836 96 35 1.0 1.0 0.00 0.00 0.00 46 1014.9
20260901215335 96 39 0.0 0.0 0.00 0.00 0.00 45 1015.0
20260901214833 96 59 0.0 0.0 0.00 0.00 0.00 45 1015.2
20260901214333 96 81 1.0 1.0 0.00 0.00 0.00 45 1015.0
20260901213827 96 55 0.0 0.0 0.00 0.00 0.00 45 1015.2
20260901213327 96 64 0.0 0.0 0.00 0.00 0.00 45 1015.2
20260901212822 96 66 0.0 0.0 0.00 0.00 0.00 45 1015.4
20260901212317 96 66 0.0 2.0 0.00 0.00 0.00 46 1015.3
20260901211813 96 9 0.0 0.0 0.00 0.00 0.00 45 1015.4
20260901211310 96 86 1.0 4.0 0.00 0.00 0.00 46 1015.4
20260901210804 97 79 1.0 3.0 0.00 0.00 0.00 44 1015.4
20260901210300 97 82 1.0 1.0 0.00 0.00 0.00 45 1015.5
20260901205756 96 80 0.0 1.0 0.00 0.00 0.00 45 1015.5
20260901205256 96 69 0.0 1.0 0.00 0.00 0.00 45 1015.6
20260901204752 97 86 1.0 1.0 0.00 0.00 0.00 44 1015.8
20260901204248 97 81 0.0 3.0 0.00 0.00 0.00 45 1015.9
20260901203748 98 75 1.0 1.0 0.00 0.00 0.00 44 1016.0
20260901203247 97 73 1.0 3.0 0.00 0.00 0.00 45 1015.8
20260901202742 98 72 0.0 2.0 0.00 0.00 0.00 45 1016.1
20260901202237 96 58 0.0 1.0 0.00 0.00 0.00 47 1016.4
20260901201732 96 93 2.0 2.0 0.00 0.00 0.00 47 1016.5
20260901201226 96 113 1.0 1.0 0.00 0.00 0.00 47 1016.4
20260901200726 95 80 0.0 2.0 0.00 0.00 0.00 48 1016.5
20260901200221 95 195 2.0 2.0 0.00 0.00 0.00 48 1016.6
20260901195719 96 201 2.0 4.0 0.00 0.00 0.00 48 1016.5
20260901195213 96 38 0.0 1.0 0.00 0.00 0.00 48 1016.7
20260901194710 96 91 1.0 3.0 0.00 0.00 0.00 48 1016.6
20260901194204 98 139 2.0 4.0 0.00 0.00 0.00 45 1016.5
20260901193700 99 13 1.0 2.0 0.00 0.00 0.00 45 1016.5
20260901193155 100 63 0.0 1.0 0.00 0.00 0.00 43 1016.6
20260901192655 101 64 0.0 2.0 0.00 0.00 0.00 41 1016.6
20260901192149 104 91 0.0 2.0 0.00 0.00 0.00 38 1016.6
20260901191646 103 66 0.0 1.0 0.00 0.00 0.00 40 1016.7
20260901191142 102 48 1.0 3.0 0.00 0.00 0.00 41 1016.5
20260901190637 102 18 3.0 3.0 0.00 0.00 0.00 40 1016.7
20260901190136 100 52 0.0 3.0 0.00 0.00 0.00 43 1016.6
20260901185636 100 99 3.0 6.0 0.00 0.00 0.00 42 1016.8
20260901185134 102 86 1.0 2.0 0.00 0.00 0.00 41 1016.9
20260901184629 100 114 1.0 2.0 0.00 0.00 0.00 44 1016.8
20260901184124 99 45 0.0 1.0 0.00 0.00 0.00 44 1017.1
20260901183620 98 65 0.0 1.0 0.00 0.00 0.00 46 1017.2
20260901183115 99 67 0.0 1.0 0.00 0.00 0.00 45 1017.3
20260901182611 97 67 0.0 1.0 0.00 0.00 0.00 46 1017.4
20260901182110 96 31 1.0 1.0 0.00 0.00 0.00 48 1017.4
20260901181605 95 80 1.0 1.0 0.00 0.00 0.00 50 1017.7
20260901181104 96 68 0.0 1.0 0.00 0.00 0.00 50 1017.9
20260901180603 97 65 1.0 2.0 0.00 0.00 0.00 48 1017.8
20260901180058 96 48 0.0 2.0 0.00 0.00 0.00 48 1018.1
20260901175551 97 52 0.0 1.0 0.00 0.00 0.00 47 1018.0
20260901175045 96 100 2.0 3.0 0.00 0.00 0.00 49 1018.0
20260901174541 96 69 1.0 1.0 0.00 0.00 0.00 48 1018.2
20260901174037 95 51 1.0 2.0 0.00 0.00 0.00 49 1018.4
20260901173532 96 118 1.0 6.0 0.00 0.00 0.00 48 1018.5
20260901173029 97 96 1.0 1.0 0.00 0.00 0.00 47 1018.5
20260901172524 95 37 2.0 2.0 0.00 0.00 0.00 49 1018.5
20260901172022 95 26 1.0 2.0 0.00 0.00 0.00 49 1018.5
20260901171521 96 304 1.0 1.0 0.00 0.00 0.00 47 1018.6
20260901171020 95 105 2.0 2.0 0.00 0.00 0.00 51 1018.8
20260901170515 94 71 0.0 1.0 0.00 0.00 0.00 52 1018.5
20260901170015 95 60 1.0 1.0 0.00 0.00 0.00 52 1018.6
20260901165509 97 56 1.0 2.0 0.00 0.00 0.00 49 1018.8
20260901165005 96 62 0.0 1.0 0.00 0.00 0.00 51 1018.7
20260901164500 95 63 1.0 3.0 0.00 0.00 0.00 52 1018.7
20260901163955 96 121 2.0 2.0 0.00 0.00 0.00 51 1018.9
20260901163450 96 32 1.0 2.0 0.00 0.00 0.00 51 1018.7
20260901162949 94 29 1.0 2.0 0.00 0.00 0.00 54 1018.8
20260901162444 95 69 0.0 1.0 0.00 0.00 0.00 54 1018.8
20260901161943 95 51 0.0 1.0 0.00 0.00 0.00 54 1018.9
20260901161443 94 55 0.0 1.0 0.00 0.00 0.00 55 1018.9
20260901160938 93 28 0.0 1.0 0.00 0.00 0.00 55 1019.0
20260901160434 94 60 0.0 2.0 0.00 0.00 0.00 52 1019.2
20260901155933 94 132 1.0 3.0 0.00 0.00 0.00 57 1019.1
20260901155432 93 49 0.0 1.0 0.00 0.00 0.00 58 1019.0
20260901154929 95 25 1.0 1.0 0.00 0.00 0.00 54 1019.2
20260901154428 93 57 0.0 3.0 0.00 0.00 0.00 57 1018.9
20260901153923 93 34 1.0 1.0 0.00 0.00 0.00 59 1019.0
20260901153418 92 58 2.0 2.0 0.00 0.00 0.00 61 1019.3
20260901152918 91 61 1.0 2.0 0.00 0.00 0.00 63 1019.1
20260901152412 89 346 1.0 1.0 0.00 0.00 0.00 67 1019.1
20260901151907 89 13 0.0 0.0 0.00 0.00 0.00 67 1019.0
20260901151406 90 45 0.0 0.0 0.00 0.00 0.00 66 1019.1
20260901150906 91 43 1.0 1.0 0.00 0.00 0.00 65 1019.1
20260901150404 90 45 0.0 0.0 0.00 0.00 0.00 64 1019.1
20260901145901 89 31 0.0 2.0 0.00 0.00 0.00 67 1019.1
20260901145356 89 100 1.0 2.0 0.00 0.00 0.00 68 1019.0
20260901144851 89 19 1.0 2.0 0.00 0.00 0.00 69 1018.9
20260901144347 89 43 1.0 1.0 0.00 0.00 0.00 68 1019.1
20260901143842 88 53 0.0 1.0 0.00 0.00 0.00 71 1019.0
20260901143338 87 35 0.0 2.0 0.00 0.00 0.00 73 1018.9
20260901142835 87 32 0.0 2.0 0.00 0.00 0.00 73 1019.0
20260901142333 86 345 1.0 2.0 0.00 0.00 0.00 75 1019.0
20260901141828 87 50 1.0 2.0 0.00 0.00 0.00 74 1019.2
20260901141329 87 23 0.0 1.0 0.00 0.00 0.00 74 1019.4
20260901140827 87 54 0.0 2.0 0.00 0.00 0.00 74 1019.2
20260901140326 85 53 0.0 1.0 0.00 0.00 0.00 78 1019.2
20260901135821 85 15 1.0 2.0 0.00 0.00 0.00 77 1019.2
20260901135316 85 52 1.0 2.0 0.00 0.00 0.00 76 1019.1
20260901134813 85 42 1.0 1.0 0.00 0.00 0.00 76 1019.1
20260901134313 85 58 0.0 1.0 0.00 0.00 0.00 77 1019.3
20260901133807 83 52 0.0 0.0 0.00 0.00 0.00 80 1019.3
20260901133306 82 58 0.0 0.0 0.00 0.00 0.00 82 1019.5
20260901132804 81 60 0.0 0.0 0.00 0.00 0.00 84 1019.1
20260901132300 81 61 0.0 0.0 0.00 0.00 0.00 85 1019.4
20260901131754 80 55 0.0 0.0 0.00 0.00 0.00 86 1019.1
20260901131253 80 57 0.0 0.0 0.00 0.00 0.00 87 1019.3
20260901130749 79 59 0.0 0.0 0.00 0.00 0.00 88 1019.0
20260901130248 79 59 0.0 0.0 0.00 0.00 0.00 89 1019.1
20260901125746 78 55 0.0 0.0 0.00 0.00 0.00 90 1018.9
20260901125241 78 55 0.0 0.0 0.00 0.00 0.00 92 1018.7
20260901124742 77 57 0.0 0.0 0.00 0.00 0.00 92 1018.7
20260901124236 77 57 0.0 0.0 0.00 0.00 0.00 93 1018.8
20260901123736 77 57 0.0 0.0 0.00 0.00 0.00 93 1018.6
20260901123231 77 57 0.0 0.0 0.00 0.00 0.00 93 1018.8
20260901122730 77 57 0.0 0.0 0.00 0.00 0.00 93 1018.6
20260901122225 76 57 0.0 0.0 0.00 0.00 0.00 93 1018.6
20260901121719 76 57 0.0 0.0 0.00 0.00 0.00 93 1018.5
20260901121214 76 56 0.0 0.0 0.00 0.00 0.00 93 1018.4
20260901120714 76 56 0.0 0.0 0.00 0.00 0.00 93 1018.5
20260901120209 76 56 0.0 0.0 0.00 0.00 0.00 92 1018.3
20260901115703 76 55 0.0 0.0 0.00 0.00 0.00 92 1018.1
20260901115200 76 55 0.0 0.0 0.00 0.00 0.00 92 1018.2
20260901114657 76 57 0.0 0.0 0.00 0.00 0.00 92 1018.1
20260901114156 77 57 0.0 0.0 0.00 0.00 0.00 92 1018.2
20260901113650 76 57 0.0 0.0 0.00 0.00 0.00 91 1018.2
20260901113145 76 57 0.0 0.0 0.00 0.00 0.00 91 1018.1
20260901112644 77 57 0.0 0.0 0.00 0.00 0.00 91 1018.1
20260901112138 77 57 0.0 0.0 0.00 0.00 0.00 91 1018.2
20260901111637 77 57 0.0 0.0 0.00 0.00 0.00 91 1018.1
20260901111132 77 57 0.0 0.0 0.00 0.00 0.00 90 1018.0
20260901110627 77 57 0.0 0.0 0.00 0.00 0.00 90 1018.1
20260901110122 77 56 0.0 0.0 0.00 0.00 0.00 90 1017.9
20260901105619 77 56 0.0 0.0 0.00 0.00 0.00 90 1018.0
20260901105118 77 56 0.0 0.0 0.00 0.00 0.00 90 1017.8
20260901104614 77 56 0.0 0.0 0.00 0.00 0.00 90 1017.7
20260901104109 77 56 0.0 0.0 0.00 0.00 0.00 90 1017.8
20260901103608 77 56 0.0 0.0 0.00 0.00 0.00 90 1017.7
20260901103104 77 56 0.0 0.0 0.00 0.00 0.00 89 1018.0
20260901102559 77 56 0.0 0.0 0.00 0.00 0.00 89 1017.9
20260901102054 77 56 0.0 0.0 0.00 0.00 0.00 89 1017.8
20260901101549 78 56 0.0 0.0 0.00 0.00 0.00 89 1017.8
20260901101048 78 57 0.0 0.0 0.00 0.00 0.00 88 1017.7
20260901100542 78 57 0.0 0.0 0.00 0.00 0.00 88 1017.8
20260901100042 78 56 0.0 0.0 0.00 0.00 0.00 87 1017.6
20260901095540 78 56 0.0 0.0 0.00 0.00 0.00 87 1017.6
20260901095038 78 56 0.0 0.0 0.00 0.00 0.00 87 1017.6
20260901094533 78 56 0.0 0.0 0.00 0.00 0.00 87 1017.5
20260901094032 78 56 0.0 0.0 0.00 0.00 0.00 87 1017.6
20260901093527 78 56 0.0 0.0 0.00 0.00 0.00 87 1017.7
20260901093022 78 56 0.0 0.0 0.00 0.00 0.00 86 1017.8
20260901092518 79 57 0.0 0.0 0.00 0.00 0.00 86 1018.0
20260901092014 79 57 0.0 0.0 0.00 0.00 0.00 86 1017.9
20260901091510 79 58 0.0 0.0 0.00 0.00 0.00 85 1017.9
20260901091009 79 58 0.0 0.0 0.00 0.00 0.00 85 1018.0
20260901090509 79 57 0.0 0.0 0.00 0.00 0.00 85 1018.0
20260901090005 79 57 0.0 0.0 0.00 0.00 0.00 85 1017.9
20260901085500 79 57 0.0 0.0 0.00 0.00 0.00 85 1017.9
20260901084951 79 57 0.0 0.0 0.00 0.00 0.00 84 1017.8
20260901084447 79 60 0.0 0.0 0.00 0.00 0.00 84 1017.9
20260901083943 80 58 0.0 0.0 0.00 0.00 0.00 84 1018.0
20260901083443 80 57 0.0 0.0 0.00 0.00 0.00 83 1017.9
20260901082941 80 58 0.0 0.0 0.00 0.00 0.00 83 1017.9
20260901082436 80 60 0.0 1.0 0.00 0.00 0.00 83 1018.2
20260901081931 80 55 0.0 0.0 0.00 0.00 0.00 82 1018.1
20260901081426 80 58 0.0 0.0 0.00 0.00 0.00 82 1018.0
20260901080921 81 50 0.0 0.0 0.00 0.00 0.00 82 1017.9
20260901080420 81 56 0.0 0.0 0.00 0.00 0.00 82 1018.1
20260901075916 81 62 0.0 0.0 0.00 0.00 0.00 81 1018.1
20260901075416 81 65 0.0 0.0 0.00 0.00 0.00 81 1018.2
20260901074916 81 62 0.0 1.0 0.00 0.00 0.00 81 1018.1
20260901074410 81 63 0.0 0.0 0.00 0.00 0.00 81 1018.1
20260901073906 82 68 0.0 0.0 0.00 0.00 0.00 80 1018.0
20260901073402 82 36 1.0 2.0 0.00 0.00 0.00 80 1017.9
20260901072857 82 62 0.0 0.0 0.00 0.00 0.00 80 1017.9
20260901072357 82 63 0.0 1.0 0.00 0.00 0.00 80 1018.0
20260901071852 82 69 0.0 0.0 0.00 0.00 0.00 79 1018.1
20260901071351 82 61 0.0 3.0 0.00 0.00 0.00 79 1018.1
20260901070850 82 73 0.0 1.0 0.00 0.00 0.00 78 1018.2
20260901070346 82 65 0.0 1.0 0.00 0.00 0.00 78 1018.2
20260901065845 82 65 0.0 0.0 0.00 0.00 0.00 78 1018.2
20260901065340 82 69 1.0 2.0 0.00 0.00 0.00 78 1018.1
20260901064836 82 73 1.0 1.0 0.00 0.00 0.00 77 1018.0
20260901064332 82 73 0.0 1.0 0.00 0.00 0.00 77 1018.2
20260901063829 83 116 3.0 4.0 0.00 0.00 0.00 77 1018.3
20260901063325 83 84 1.0 1.0 0.00 0.00 0.00 77 1018.3
20260901062815 83 76 1.0 2.0 0.00 0.00 0.00 77 1018.3
20260901062310 82 63 0.0 1.0 0.00 0.00 0.00 76 1018.3
20260901061806 82 78 0.0 1.0 0.00 0.00 0.00 77 1018.2
20260901061306 82 72 0.0 1.0 0.00 0.00 0.00 76 1018.0
20260901060801 83 67 2.0 2.0 0.00 0.00 0.00 76 1018.0
20260901060257 83 78 0.0 3.0 0.00 0.00 0.00 76 1017.9
20260901055752 83 74 0.0 0.0 0.00 0.00 0.00 75 1018.1
20260901055248 83 63 0.0 1.0 0.00 0.00 0.00 74 1017.8
20260901054745 83 102 1.0 2.0 0.00 0.00 0.00 73 1017.9
20260901054241 83 69 1.0 1.0 0.00 0.00 0.00 72 1017.7
20260901053737 83 74 0.0 1.0 0.00 0.00 0.00 71 1017.8
20260901053232 83 69 1.0 1.0 0.00 0.00 0.00 71 1017.8
20260901052727 84 67 0.0 1.0 0.00 0.00 0.00 70 1017.6
20260901052223 84 83 1.0 1.0 0.00 0.00 0.00 70 1017.7
20260901051722 84 64 0.0 2.0 0.00 0.00 0.00 69 1017.6
20260901051216 84 112 1.0 2.0 0.00 0.00 0.00 69 1017.6
20260901050712 84 81 0.0 1.0 0.00 0.00 0.00 68 1017.5
20260901050207 85 97 0.0 1.0 0.00 0.00 0.00 68 1017.3